Weather History for Concord, NC

Change the Weather History Date:

Friday, April 13, 2012

  Actual Average (KCLT) Record (KCLT)
Temperature  
Mean Temperature 50 °F 59 °F  
Max Temperature 69 °F 71 °F 90 °F (1930)
Min Temperature 32 °F 46 °F 28 °F (1940)
Degree Days  
Heating Degree Days 14 7  
Month to date heating degree days 110  
Since 1 July heating degree days 3242  
Cooling Degree Days 0 1  
Month to date cooling degree days 12  
Year to date cooling degree days 17  
Moisture  
Dew Point 33 °F    
Average Humidity 71    
Maximum Humidity 100    
Minimum Humidity 20    
Precipitation  
Precipitation 0.00 in 0.10 in 1.75 in (1903)
Month to date precipitation 1.35  
Year to date precipitation 12.09  
Snow  
Snow 0.00 in 0.00 in T in (1926)
Month to date snowfall 0.0  
Since 1 July snowfall 4.3  
Snow Depth -    
Sea Level Pressure  
Sea Level Pressure 30.23 in    
Wind  
Wind Speed 1 mph (NNE)    
Max Wind Speed 7 mph    
Max Gust Speed -    
Visibility 10 miles    
Events      
T = Trace of Precipitation, MM = Missing Value Source: NWS Daily Summary

Daily Weather History Graph

Daily Weather History Graph

Search for Another Location

Airport:

Trip Planner

Search our weather history database for the weather conditions in past years. The results will help you decide how hot, cold, wet, or windy it might be!

Date:

Astronomy

Apr. 13, 2012 Rise Set
Actual Time 6:52 AM EDT 7:54 PM EDT
Civil Twilight 6:26 AM EDT 8:20 PM EDT
Nautical Twilight 5:55 AM EDT 8:51 PM EDT
Astronomical Twilight 5:23 AM EDT 9:23 PM EDT
Moon 2:19 AM EDT (4/13) 12:57 PM EDT (4/13)
Length of Visible Light 13h 54m
Length of Day
13h 02m
Waning Gibbous, 48% of the Moon is Illuminated
Apr 13
Waning Gibbous
Apr 21
New
Apr 29
First Quarter
May 5
Full
May 12
Last Quarter

Hourly Weather History & Observations

Time (EDT) Temp. Dew Point Humidity Pressure Visibility Wind Dir Wind Speed Gust Speed Precip Events Conditions
12:15 AM 37.4 °F 33.8 °F 87% 30.20 in 10.0 mi Calm Calm - N/A   Clear
12:35 AM 37.4 °F 33.8 °F 87% 30.20 in 10.0 mi Calm Calm - N/A   Clear
12:55 AM 37.4 °F 33.8 °F 87% 30.20 in 10.0 mi Calm Calm - N/A   Clear
1:15 AM 37.4 °F 33.8 °F 87% 30.20 in 10.0 mi Calm Calm - N/A   Clear
1:35 AM 37.4 °F 33.8 °F 87% 30.19 in 10.0 mi Calm Calm - N/A   Clear
1:55 AM 35.6 °F 33.8 °F 93% 30.19 in 10.0 mi Calm Calm - N/A   Clear
2:15 AM 35.6 °F 33.8 °F 93% 30.19 in 10.0 mi Calm Calm - N/A   Clear
2:35 AM 35.6 °F 33.8 °F 93% 30.18 in 10.0 mi Calm Calm - N/A   Clear
2:55 AM 35.6 °F 33.8 °F 93% 30.17 in 10.0 mi Calm Calm - N/A   Clear
3:15 AM 35.6 °F 33.8 °F 93% 30.17 in 10.0 mi Calm Calm - N/A   Clear
3:35 AM 35.6 °F 32.0 °F 87% 30.18 in 10.0 mi Calm Calm - N/A   Clear
3:55 AM 35.6 °F 32.0 °F 87% 30.18 in 10.0 mi Calm Calm - N/A   Clear
4:15 AM 33.8 °F 32.0 °F 93% 30.18 in 10.0 mi Calm Calm - N/A   Clear
4:35 AM 33.8 °F 32.0 °F 93% 30.18 in 10.0 mi Calm Calm - N/A   Clear
4:55 AM 33.8 °F 32.0 °F 93% 30.18 in 10.0 mi Calm Calm - N/A   Clear
5:15 AM 33.8 °F 32.0 °F 93% 30.19 in 10.0 mi Calm Calm - N/A   Clear
5:35 AM 33.8 °F 32.0 °F 93% 30.19 in 10.0 mi Calm Calm - N/A   Clear
5:55 AM 33.8 °F 32.0 °F 93% 30.20 in 7.0 mi Calm Calm - N/A   Clear
6:15 AM 32.0 °F 32.0 °F 100% 30.20 in 10.0 mi Calm Calm - N/A   Clear
6:35 AM 33.8 °F 32.0 °F 93% 30.21 in 10.0 mi Calm Calm - N/A   Clear
6:55 AM 33.8 °F 32.0 °F 93% 30.22 in 10.0 mi Calm Calm - N/A   Clear
7:15 AM 33.8 °F 32.0 °F 93% 30.23 in 7.0 mi Calm Calm - N/A   Clear
7:35 AM 33.8 °F 32.0 °F 93% 30.24 in 10.0 mi Calm Calm - N/A   Clear
7:55 AM 35.6 °F 33.8 °F 93% 30.24 in 10.0 mi Calm Calm - N/A   Clear
8:55 AM 48.2 °F 37.4 °F 66% 30.25 in 10.0 mi Calm Calm - N/A   Clear
9:55 AM 55.4 °F 37.4 °F 51% 30.27 in 10.0 mi North 5.8 mph - N/A   Clear
10:55 AM 57.2 °F 35.6 °F 44% 30.27 in 10.0 mi North 6.9 mph - N/A   Clear
11:55 AM 60.8 °F 33.8 °F 36% 30.27 in 10.0 mi North 5.8 mph - N/A   Clear
12:55 PM 64.4 °F 32.0 °F 30% 30.26 in 10.0 mi NNE 5.8 mph - N/A   Clear
1:55 PM 64.4 °F 30.2 °F 28% 30.25 in 10.0 mi North 6.9 mph - N/A   Clear
2:55 PM 66.2 °F 28.4 °F 24% 30.25 in 10.0 mi NE 4.6 mph - N/A   Clear
3:55 PM 69.8 °F 26.6 °F 20% 30.24 in 10.0 mi NE 5.8 mph - N/A   Clear
4:55 PM 69.8 °F 28.4 °F 21% 30.24 in 10.0 mi NW 5.8 mph - N/A   Clear
5:55 PM 68.0 °F 28.4 °F 23% 30.24 in 10.0 mi Calm Calm - N/A   Clear
6:55 PM 68.0 °F 26.6 °F 21% 30.25 in 10.0 mi Calm Calm - N/A   Clear
7:55 PM 57.2 °F 35.6 °F 44% 30.26 in 10.0 mi Calm Calm - N/A   Clear
8:55 PM 53.6 °F 35.6 °F 51% 30.28 in 10.0 mi Calm Calm - N/A   Clear
9:35 PM 50.0 °F 35.6 °F 58% 30.30 in 10.0 mi Calm Calm - N/A   Clear
9:55 PM 50.0 °F 35.6 °F 58% 30.30 in 10.0 mi Calm Calm - N/A   Clear
10:15 PM 46.4 °F 35.6 °F 66% 30.29 in 10.0 mi Calm Calm - N/A   Clear
10:35 PM 46.4 °F 35.6 °F 66% 30.29 in 10.0 mi Calm Calm - N/A   Clear
10:55 PM 46.4 °F 35.6 °F 66% 30.30 in 10.0 mi Calm Calm - N/A   Clear
11:15 PM 44.6 °F 37.4 °F 76% 30.30 in 10.0 mi Calm Calm - N/A   Clear
11:35 PM 44.6 °F 37.4 °F 76% 30.30 in 10.0 mi Calm Calm - N/A   Clear
11:55 PM 44.6 °F 37.4 °F 76% 30.30 in 10.0 mi Calm Calm - N/A   Clear